Starlink 11359

operational
NORAD ID: 61884 Int'l Des: 2024-204 Owner: SPXS Country: US Constellation: starlink
LEOCIRCULAR

About Starlink 11359

Description loading...

Live Position

Loading 3D Globe...

Upcoming Passes

Altitude History

Altitude vs Time

uPlot chart will show altitude changes over time

Two-Line Element Set

1 61884U 24204L 25303.21520979 -.00003128 00000-0 -20928-4 0 9998
2 61884 53.1572 279.3431 0001277 106.3500 253.7659 15.69747746 56423
Epoch: Oct 30, 2025 • Age: 23 hours

Current Status

Altitude 378.5 km
Velocity 7.68 km/s
Sub-Earth Point -51.89°S, 106.98°E
Launch Date Nov 9, 2024
Age 0.9 years
Type internet

Technical Details

Classification Payload
Mass 960.00 kg
Dry Mass 910.00 kg
Total Mass 960.00 kg
Length 0.30 m
Diameter 4.10 m
Span 29.00 m
Shape Box + pan
Manufacturer SPXS
Bus Type Starlink V2MD
Phase Status In Orbit
Owner/State SPXS/US

Large Constellations

Loading constellations...